Location: Praha
(50.0830°N, 14.4670°E)
Time: 10:26:46
(UTC+02:00)

ISS - Pass Details

Date: 19 May 2019
Orbit: 407 x 410 km, 51.6° (Epoch: 21 May)

Event Time Altitude Azimuth Distance (km) Brightness Sun altitude
Rises 22:01:15 0° 225° (SW) 2,323 0.0 -9.9°
Reaches altitude 10° 22:03:25 10° 217° (SW) 1,466 -1.1 -10.1°
Maximum altitude 22:06:27 35° 149° (SSE) 675 -3.2 -10.4°
Drops below altitude 10° 22:09:31 10° 82° (E) 1,474 -1.3 -10.7°
Sets 22:11:42 0° 73° (ENE) 2,338 -0.2 -11.0°
